Regional Weather Roundup
Issued by NWS

Home | Current Version | Previous Version | Text Only | Print | Product List | Glossary On
Versions: 1 2 3 4 5 6 7 8 9 10 11 12 13 14 15 16 17 18 19 20 21 22 23 24 25 26 27 28 29 30 31 32 33 34 35 36 37 38 39 40 41 42 43 44 45 46 47 48 49 50
000
ASUS42 KFFC 181310
RWRGA
WEATHER ROUNDUP FOR GEORGIA
NATIONAL WEATHER SERVICE PEACHTREE CITY GA
800 AM EST SAT NOV 18 2017

NOTE: "FAIR" INDICATES FEW OR NO CLOUDS BELOW 12,000 FEET WITH NO
SIGNIFICANT WEATHER AND/OR OBSTRUCTIONS TO VISIBILITY.

* = USE WITH CAUTION. THE STATIONS MARKED WITH AN ASTERISK MAY NOT
REPORT WEATHER SUCH AS PRECIPITATION, FOG, OR THUNDER AND ARE NOT
QUALITY CONTROLLED BY NWS.

THE REMARK "TC" DENOTES TEMPERATURE READING IN DEGREES CELSIUS.

GAZ001>058-181400-
NORTH GEORGIA

CITY           SKY/WX    TMP DP  RH WIND       PRES   REMARKS
ATLANTA        CLOUDY    47  47 100 SE3       30.02S
ATHENS         CLEAR     40  39  97 CALM      30.04S
CHAMBLEE       MOCLDY    48  46  93 S3        30.02S
PEACHTREE CITY CLOUDY    43  42  97 CALM      30.03S
ROME           CLOUDY    51  47  86 W3        29.98S
WEST ATLANTA   MOCLDY    43  43 100 CALM      30.02R
GAINESVILLE    CLOUDY    47  43  86 CALM      30.05S
CARTERSVILLE   PTCLDY    47  45  93 CALM      30.01F


CITY           SKY/WX    TMP DP  RH WIND       PRES   REMARKS
DALTON*        CLOUDY    52  43  71 S6        30.00S
LAWRENCEVILLE* CLOUDY    45  42  89 CALM      30.04S
MARIETTA       CLOUDY    46  45  93 E3        30.01S FOG
KENNESAW*      MOCLDY    47  45  93 E3        30.03R
CANTON*        CLOUDY    50  45  81 CALM      30.03F
$$

GAZ059>098-102>109-181400-
CENTRAL GEORGIA

CITY           SKY/WX    TMP DP  RH WIND       PRES   REMARKS
AUGUSTA-BUSH   CLEAR     39  38  96 CALM      30.06F FOG
AUGUSTA-DANIEL MOCLDY    49  43  80 SE5       30.06F HAZE
COLUMBUS       CLEAR     50  47  89 E3        30.03S
MACON          PTCLDY    42  41  96 CALM      30.06R
ROBINS AFB     PTCLDY    42  41  96 CALM      30.05S


CITY           SKY/WX    TMP DP  RH WIND       PRES   REMARKS
LAGRANGE*      CLEAR     42  42  98 CALM      30.02S
SYLVANIA*      MOSUNNY   47  47 100 CALM      30.07S
MILLEDGEVILLE* CLEAR     43  43 100 CALM      30.06S FOG
$$

GAZ099>101-110>166-181400-
SOUTH GEORGIA

CITY           SKY/WX    TMP DP  RH WIND       PRES   REMARKS
SAVANNAH       MOSUNNY   54  52  93 CALM      30.06S
VALDOSTA       SUNNY     48  47  96 CALM      30.05S FOG
ALMA           SUNNY     51  50  96 CALM      30.05S
ST SIMONS      MOSUNNY   58  57  97 CALM      30.05R
FT STEWART     SUNNY     51  48  91 CALM      30.04S
ALBANY         FOG       46  46 100 CALM      30.07S VSB 1/2
HUNTER AFB     SUNNY     55  53  93 CALM      30.03S
MOODY AFB      SUNNY     49  48  99 CALM      30.05R
BRUNSWICK      MOSUNNY   52  52 100 CALM      30.06S


CITY           SKY/WX    TMP DP  RH WIND       PRES   REMARKS
BAINBRIDGE*      N/A     50  50 100 CALM      30.04F
MOULTRIE*      FOG       50  48  93 CALM      30.06S VSB 1/4
VIDALIA*       SUNNY     50  50 100 CALM      30.06F
WAYCROSS*      SUNNY     50  47  90 CALM      30.06R
DOUGLAS*       SUNNY     50  48  93 CALM      30.07S FOG
$$




USA.gov is the U.S. government's official web portal to all federal, state and local government web resources and services.